When you browse on this site, cookies collect data to enhance your experience and personalize the content and advertising you see.
Visit our Privacy Policy to learn more. By continuing to use the site, you agree to this use of cookies and data.
  • en Suisse
  • Liste des pays
  • À 7 jours
  • Température de l'eau
  • Carte météo
  • Widgets météo
  • user-avatar
    Se connecter

    Météo par heure à Budapest

    Ce jour, 4 Avril, Samedi

    Heure Température Précipitation Vent Pression Humidité
    00:00 +7°C° 0 mm 3 m/s 754 mmHg 66%
    01:00 +6°C° 0 mm 4 m/s 755 mmHg 64%
    02:00 +5°C° 0 mm 4 m/s 755 mmHg 67%
    03:00 +5°C° 0 mm 3 m/s 755 mmHg 69%
    04:00 +4°C° 0 mm 3 m/s 755 mmHg 72%
    05:00 +5°C° 0 mm 3 m/s 756 mmHg 71%
    06:00 +7°C° 0 mm 3 m/s 757 mmHg 70%
    07:00 +6°C° 0 mm 4 m/s 757 mmHg 69%
    08:00 +8°C° 0 mm 4 m/s 757 mmHg 65%
    09:00 +10°C° 0 mm 4 m/s 758 mmHg 60%
    10:00 +12°C° 0 mm 4 m/s 758 mmHg 56%
    11:00 +13°C° 0 mm 4 m/s 758 mmHg 52%
    12:00 +13°C° 0 mm 4 m/s 758 mmHg 49%
    13:00 +14°C° 0 mm 4 m/s 758 mmHg 46%
    14:00 +14°C° 0 mm 4 m/s 758 mmHg 45%
    15:00 +14°C° 0 mm 4 m/s 758 mmHg 43%
    16:00 +14°C° 0 mm 3 m/s 758 mmHg 42%
    17:00 +13°C° 0 mm 3 m/s 758 mmHg 46%
    18:00 +11°C° 0 mm 3 m/s 758 mmHg 50%
    19:00 +10°C° 0 mm 3 m/s 759 mmHg 53%
    20:00 +8°C° 0 mm 4 m/s 759 mmHg 53%
    21:00 +8°C° 0 mm 4 m/s 760 mmHg 52%
    22:00 +7°C° 0 mm 4 m/s 760 mmHg 51%
    23:00 +7°C° 0 mm 4 m/s 761 mmHg 52%

    Demain, 5 Avril, Dimanche

    Heure Température Précipitation Vent Pression Humidité
    00:00 +6°C° 0 mm 4 m/s 761 mmHg 52%
    01:00 +6°C° 0 mm 4 m/s 761 mmHg 53%
    02:00 +5°C° 0 mm 4 m/s 761 mmHg 55%
    03:00 +5°C° 0 mm 4 m/s 762 mmHg 56%
    04:00 +5°C° 0 mm 4 m/s 762 mmHg 57%
    05:00 +5°C° 0 mm 5 m/s 762 mmHg 57%
    06:00 +6°C° 0 mm 5 m/s 762 mmHg 56%
    07:00 +6°C° 0 mm 5 m/s 763 mmHg 55%
    08:00 +8°C° 0 mm 5 m/s 763 mmHg 53%
    09:00 +10°C° 0 mm 5 m/s 763 mmHg 51%
    10:00 +13°C° 0 mm 5 m/s 763 mmHg 49%
    11:00 +14°C° 0 mm 5 m/s 763 mmHg 47%
    12:00 +15°C° 0 mm 5 m/s 763 mmHg 45%
    13:00 +16°C° 0 mm 5 m/s 763 mmHg 42%
    14:00 +16°C° 0 mm 5 m/s 762 mmHg 43%
    15:00 +15°C° 0 mm 5 m/s 762 mmHg 44%
    16:00 +15°C° 0 mm 5 m/s 762 mmHg 45%
    17:00 +14°C° 0 mm 4 m/s 762 mmHg 50%
    18:00 +12°C° 0 mm 4 m/s 762 mmHg 55%
    19:00 +11°C° 0 mm 3 m/s 762 mmHg 61%
    20:00 +10°C° 0 mm 3 m/s 763 mmHg 60%
    21:00 +10°C° 0 mm 3 m/s 763 mmHg 59%
    22:00 +9°C° 0 mm 3 m/s 763 mmHg 58%
    23:00 +8°C° 0 mm 3 m/s 763 mmHg 61%

    Après-demain, 6 Avril, Lundi

    Heure Température Précipitation Vent Pression Humidité
    00:00 +8°C° 0 mm 3 m/s 764 mmHg 63%
    01:00 +7°C° 0 mm 3 m/s 764 mmHg 66%
    02:00 +7°C° 0 mm 3 m/s 764 mmHg 67%
    03:00 +7°C° 0 mm 3 m/s 764 mmHg 69%
    04:00 +5°C° 0 mm 3 m/s 764 mmHg 70%
    05:00 +7°C° 0 mm 3 m/s 765 mmHg 65%
    06:00 +7°C° 0 mm 3 m/s 765 mmHg 59%
    07:00 +8°C° 0 mm 3 m/s 766 mmHg 54%
    08:00 +10°C° 0 mm 3 m/s 766 mmHg 49%
    09:00 +11°C° 0 mm 4 m/s 766 mmHg 44%
    10:00 +13°C° 0 mm 4 m/s 767 mmHg 39%
    11:00 +13°C° 0 mm 4 m/s 766 mmHg 38%
    12:00 +14°C° 0 mm 4 m/s 766 mmHg 37%
    13:00 +15°C° 0 mm 4 m/s 766 mmHg 36%
    14:00 +15°C° 0 mm 4 m/s 766 mmHg 36%
    15:00 +15°C° 0 mm 4 m/s 765 mmHg 36%
    16:00 +15°C° 0 mm 4 m/s 765 mmHg 36%
    17:00 +14°C° 0 mm 3 m/s 765 mmHg 42%
    18:00 +12°C° 0 mm 3 m/s 765 mmHg 48%
    19:00 +11°C° 0 mm 3 m/s 765 mmHg 53%
    20:00 +10°C° 0 mm 3 m/s 765 mmHg 56%
    21:00 +9°C° 0 mm 2 m/s 766 mmHg 58%
    22:00 +9°C° 0 mm 2 m/s 766 mmHg 61%
    23:00 +8°C° 0 mm 2 m/s 766 mmHg 63%

    7 Avril, Mardi

    Heure Température Précipitation Vent Pression Humidité
    00:00 +7°C° 0 mm 2 m/s 766 mmHg 65%
    01:00 +8°C° 0 mm 1 m/s 766 mmHg 66%
    02:00 +8°C° 0 mm 1 m/s 766 mmHg 66%
    03:00 +7°C° 0 mm 1 m/s 766 mmHg 65%
    04:00 +7°C° 0 mm 1 m/s 766 mmHg 65%
    05:00 +8°C° 0 mm 1 m/s 767 mmHg 61%
    06:00 +8°C° 0 mm 1 m/s 767 mmHg 58%
    07:00 +9°C° 0 mm 1 m/s 767 mmHg 54%
    08:00 +11°C° 0 mm 1 m/s 767 mmHg 48%
    09:00 +12°C° 0 mm 2 m/s 767 mmHg 42%
    10:00 +14°C° 0 mm 2 m/s 767 mmHg 36%
    11:00 +15°C° 0 mm 2 m/s 767 mmHg 35%
    12:00 +16°C° 0 mm 2 m/s 767 mmHg 33%
    13:00 +17°C° 0 mm 2 m/s 767 mmHg 32%
    14:00 +18°C° 0 mm 2 m/s 766 mmHg 31%
    15:00 +19°C° 0 mm 1 m/s 766 mmHg 31%
    16:00 +19°C° 0 mm 1 m/s 765 mmHg 30%
    17:00 +16°C° 0 mm 1 m/s 765 mmHg 35%
    18:00 +15°C° 0 mm 1 m/s 765 mmHg 39%
    19:00 +13°C° 0 mm 1 m/s 765 mmHg 43%
    20:00 +12°C° 0 mm 1 m/s 765 mmHg 45%
    21:00 +12°C° 0 mm 1 m/s 765 mmHg 47%
    22:00 +11°C° 0 mm 1 m/s 766 mmHg 49%
    23:00 +11°C° 0 mm 1 m/s 765 mmHg 51%

    8 Avril, Mercredi

    Heure Température Précipitation Vent Pression Humidité
    00:00 +10°C° 0 mm 1 m/s 765 mmHg 52%
    01:00 +10°C° 0 mm 1 m/s 765 mmHg 54%
    02:00 +8°C° 0 mm 0 m/s 765 mmHg 55%
    03:00 +8°C° 0 mm 0 m/s 765 mmHg 57%
    04:00 +8°C° 0 mm 0 m/s 765 mmHg 58%
    05:00 +8°C° 0 mm 0 m/s 765 mmHg 57%
    06:00 +9°C° 0 mm 0 m/s 765 mmHg 55%
    07:00 +10°C° 0 mm 0 m/s 765 mmHg 54%
    08:00 +12°C° 0 mm 0 m/s 765 mmHg 49%
    09:00 +15°C° 0 mm 1 m/s 765 mmHg 44%
    10:00 +18°C° 0 mm 1 m/s 765 mmHg 40%
    11:00 +18°C° 0 mm 1 m/s 764 mmHg 37%
    12:00 +19°C° 0 mm 1 m/s 764 mmHg 34%
    13:00 +19°C° 0 mm 2 m/s 763 mmHg 31%
    14:00 +19°C° 0 mm 2 m/s 763 mmHg 31%
    15:00 +19°C° 0 mm 2 m/s 762 mmHg 31%
    16:00 +20°C° 0 mm 2 m/s 762 mmHg 31%
    17:00 +19°C° 0 mm 1 m/s 762 mmHg 36%
    18:00 +16°C° 0 mm 1 m/s 762 mmHg 40%
    19:00 +14°C° 0 mm 1 m/s 761 mmHg 45%
    20:00 +14°C° 0 mm 1 m/s 761 mmHg 46%
    21:00 +12°C° 0 mm 0 m/s 762 mmHg 48%
    22:00 +11°C° 0 mm 0 m/s 762 mmHg 50%
    23:00 +11°C° 0 mm 0 m/s 761 mmHg 51%

    9 Avril, Jeudi

    Heure Température Précipitation Vent Pression Humidité
    00:00 +12°C° 0 mm 1 m/s 761 mmHg 52%
    01:00 +11°C° 0 mm 1 m/s 761 mmHg 53%
    02:00 +11°C° 0 mm 1 m/s 761 mmHg 54%
    03:00 +10°C° 0 mm 1 m/s 761 mmHg 54%
    04:00 +10°C° 0 mm 1 m/s 761 mmHg 55%
    05:00 +11°C° 0 mm 1 m/s 761 mmHg 54%
    06:00 +12°C° 0 mm 1 m/s 761 mmHg 53%
    07:00 +13°C° 0 mm 1 m/s 761 mmHg 53%
    08:00 +15°C° 0 mm 1 m/s 761 mmHg 48%
    09:00 +18°C° 0 mm 1 m/s 761 mmHg 43%
    10:00 +19°C° 0 mm 1 m/s 761 mmHg 38%
    11:00 +20°C° 0 mm 1 m/s 761 mmHg 35%
    12:00 +21°C° 0 mm 1 m/s 761 mmHg 31%
    13:00 +22°C° 0 mm 1 m/s 761 mmHg 28%
    14:00 +22°C° 0 mm 1 m/s 760 mmHg 28%
    15:00 +22°C° 0 mm 1 m/s 760 mmHg 28%
    16:00 +22°C° 0 mm 1 m/s 759 mmHg 27%
    17:00 +21°C° 0 mm 1 m/s 759 mmHg 32%
    18:00 +19°C° 0 mm 1 m/s 759 mmHg 37%
    19:00 +16°C° 0 mm 1 m/s 759 mmHg 41%
    20:00 +15°C° 0 mm 1 m/s 759 mmHg 43%
    21:00 +15°C° 0 mm 1 m/s 759 mmHg 46%
    22:00 +14°C° 0 mm 1 m/s 760 mmHg 48%
    23:00 +14°C° 0 mm 1 m/s 760 mmHg 48%
    Voir plus